Year,Month,Day,Hour,Minute,Value (Times are PST for temperature in C)
2015,08,17,00,00,16.30
2015,08,17,00,01,16.30
2015,08,17,00,02,16.30
2015,08,17,00,03,16.30
2015,08,17,00,04,16.30
2015,08,17,00,05,16.30
2015,08,17,00,06,16.30
2015,08,17,00,07,16.40
2015,08,17,00,08,16.40
2015,08,17,00,09,16.40
2015,08,17,00,10,16.40
2015,08,17,00,11,16.40
2015,08,17,00,12,16.40
2015,08,17,00,13,16.40
2015,08,17,00,14,16.30
2015,08,17,00,15,16.30
2015,08,17,00,16,16.30
2015,08,17,00,17,16.30
2015,08,17,00,18,16.20
2015,08,17,00,19,16.20
2015,08,17,00,20,16.20
2015,08,17,00,21,16.20
2015,08,17,00,22,16.10
2015,08,17,00,23,16.10
2015,08,17,00,24,16.10
2015,08,17,00,25,16.10
2015,08,17,00,26,16.00
2015,08,17,00,27,16.00
2015,08,17,00,28,15.90
2015,08,17,00,29,15.90
2015,08,17,00,30,15.80
2015,08,17,00,31,15.80
2015,08,17,00,32,15.70
2015,08,17,00,33,15.70
2015,08,17,00,34,15.70
2015,08,17,00,35,15.60
2015,08,17,00,36,15.60
2015,08,17,00,37,15.60
2015,08,17,00,38,15.50
2015,08,17,00,39,15.50
2015,08,17,00,40,15.50
2015,08,17,00,41,15.40
2015,08,17,00,42,15.40
2015,08,17,00,43,15.40
2015,08,17,00,44,15.30
2015,08,17,00,45,15.30
2015,08,17,00,46,15.30
2015,08,17,00,47,15.30
2015,08,17,00,48,15.20
2015,08,17,00,49,15.20
2015,08,17,00,50,15.20
2015,08,17,00,51,15.20
2015,08,17,00,52,15.20
2015,08,17,00,53,15.20
2015,08,17,00,54,15.10
2015,08,17,00,55,15.10
2015,08,17,00,56,15.10
2015,08,17,00,57,15.10
2015,08,17,00,58,15.10
2015,08,17,00,59,15.00
2015,08,17,01,00,15.00
2015,08,17,01,01,14.90
2015,08,17,01,02,14.90
2015,08,17,01,03,14.90
2015,08,17,01,04,14.80
2015,08,17,01,05,14.80
2015,08,17,01,06,14.80
2015,08,17,01,07,14.80
2015,08,17,01,08,14.80
2015,08,17,01,09,14.80
2015,08,17,01,10,14.80
2015,08,17,01,11,14.70
2015,08,17,01,12,14.70
2015,08,17,01,13,14.70
2015,08,17,01,14,14.70
2015,08,17,01,15,14.70
2015,08,17,01,16,14.70
2015,08,17,01,17,14.70
2015,08,17,01,18,14.60
2015,08,17,01,19,14.60
2015,08,17,01,20,14.70
2015,08,17,01,21,14.60
2015,08,17,01,22,14.60
2015,08,17,01,23,14.60
2015,08,17,01,24,14.60
2015,08,17,01,25,14.60
2015,08,17,01,26,14.60
2015,08,17,01,27,14.60
2015,08,17,01,28,14.60
2015,08,17,01,29,14.60
2015,08,17,01,30,14.60
2015,08,17,01,31,14.60
2015,08,17,01,32,14.60
2015,08,17,01,33,14.60
2015,08,17,01,34,14.60
2015,08,17,01,35,14.60
2015,08,17,01,36,14.60
2015,08,17,01,37,14.60
2015,08,17,01,38,14.60
2015,08,17,01,39,14.50
2015,08,17,01,40,14.50
2015,08,17,01,41,14.40
2015,08,17,01,42,14.40
2015,08,17,01,43,14.30
2015,08,17,01,44,14.30
2015,08,17,01,45,14.30
2015,08,17,01,46,14.20
2015,08,17,01,47,14.20
2015,08,17,01,48,14.20
2015,08,17,01,49,14.20
2015,08,17,01,50,14.20
2015,08,17,01,51,14.20
2015,08,17,01,52,14.30
2015,08,17,01,53,14.30
2015,08,17,01,54,14.40
2015,08,17,01,55,14.40
2015,08,17,01,56,14.50
2015,08,17,01,57,14.50
2015,08,17,01,58,14.50
2015,08,17,01,59,14.50
2015,08,17,02,00,14.50
2015,08,17,02,01,14.60
2015,08,17,02,02,14.50
2015,08,17,02,03,14.50
2015,08,17,02,04,14.50
2015,08,17,02,05,14.50
2015,08,17,02,06,14.50
2015,08,17,02,07,14.50
2015,08,17,02,08,14.50
2015,08,17,02,09,14.50
2015,08,17,02,10,14.50
2015,08,17,02,11,14.50
2015,08,17,02,12,14.50
2015,08,17,02,13,14.50
2015,08,17,02,14,14.50
2015,08,17,02,15,14.50
2015,08,17,02,16,14.50
2015,08,17,02,17,14.50
2015,08,17,02,18,14.60
2015,08,17,02,19,14.60
2015,08,17,02,20,14.60
2015,08,17,02,21,14.50
2015,08,17,02,22,14.40
2015,08,17,02,23,14.40
2015,08,17,02,24,14.30
2015,08,17,02,25,14.30
2015,08,17,02,26,14.30
2015,08,17,02,27,14.30
2015,08,17,02,28,14.30
2015,08,17,02,29,14.30
2015,08,17,02,30,14.30
2015,08,17,02,31,14.40
2015,08,17,02,32,14.40
2015,08,17,02,33,14.50
2015,08,17,02,34,14.50
2015,08,17,02,35,14.60
2015,08,17,02,36,14.60
2015,08,17,02,37,14.60
2015,08,17,02,38,14.70
2015,08,17,02,39,14.80
2015,08,17,02,40,14.80
2015,08,17,02,41,14.90
2015,08,17,02,42,15.00
2015,08,17,02,43,15.00
2015,08,17,02,44,15.10
2015,08,17,02,45,15.20
2015,08,17,02,46,15.20
2015,08,17,02,47,15.30
2015,08,17,02,48,15.30
2015,08,17,02,49,15.30
2015,08,17,02,50,15.30
2015,08,17,02,51,15.20
2015,08,17,02,52,15.00
2015,08,17,02,53,14.90
2015,08,17,02,54,14.70
2015,08,17,02,55,14.60
2015,08,17,02,56,14.50
2015,08,17,02,57,14.40
2015,08,17,02,58,14.40
2015,08,17,02,59,14.30
2015,08,17,03,00,14.30
2015,08,17,03,01,14.20
2015,08,17,03,02,14.20
2015,08,17,03,03,14.20
2015,08,17,03,04,14.10
2015,08,17,03,05,14.10
2015,08,17,03,06,14.00
2015,08,17,03,07,13.90
2015,08,17,03,08,13.90
2015,08,17,03,09,13.90
2015,08,17,03,10,13.80
2015,08,17,03,11,13.80
2015,08,17,03,12,13.70
2015,08,17,03,13,13.70
2015,08,17,03,14,13.70
2015,08,17,03,15,13.70
2015,08,17,03,16,13.60
2015,08,17,03,17,13.60
2015,08,17,03,18,13.60
2015,08,17,03,19,13.60
2015,08,17,03,20,13.60
2015,08,17,03,21,13.60
2015,08,17,03,22,13.50
2015,08,17,03,23,13.50
2015,08,17,03,24,13.50
2015,08,17,03,25,13.50
2015,08,17,03,26,13.50
2015,08,17,03,27,13.50
2015,08,17,03,28,13.40
2015,08,17,03,29,13.40
2015,08,17,03,30,13.40
2015,08,17,03,31,13.40
2015,08,17,03,32,13.40
2015,08,17,03,33,13.40
2015,08,17,03,34,13.40
2015,08,17,03,35,13.40
2015,08,17,03,36,13.40
2015,08,17,03,37,13.30
2015,08,17,03,38,13.30
2015,08,17,03,39,13.30
2015,08,17,03,40,13.30
2015,08,17,03,41,13.20
2015,08,17,03,42,13.20
2015,08,17,03,43,13.20
2015,08,17,03,44,13.20
2015,08,17,03,45,13.20
2015,08,17,03,46,13.20
2015,08,17,03,47,13.20
2015,08,17,03,48,13.20
2015,08,17,03,49,13.20
2015,08,17,03,50,13.20
2015,08,17,03,51,13.20
2015,08,17,03,52,13.20
2015,08,17,03,53,13.20
2015,08,17,03,54,13.20
2015,08,17,03,55,13.20
2015,08,17,03,56,13.20
2015,08,17,03,57,13.20
2015,08,17,03,58,13.20
2015,08,17,03,59,13.10
2015,08,17,04,00,13.10
2015,08,17,04,01,13.10
2015,08,17,04,02,13.10
2015,08,17,04,03,13.10
2015,08,17,04,04,13.00
2015,08,17,04,05,13.00
2015,08,17,04,06,13.00
2015,08,17,04,07,13.00
2015,08,17,04,08,13.00
2015,08,17,04,09,13.00
2015,08,17,04,10,13.10
2015,08,17,04,11,13.10
2015,08,17,04,12,13.10
2015,08,17,04,13,13.20
2015,08,17,04,14,13.30
2015,08,17,04,15,13.30
2015,08,17,04,16,13.30
2015,08,17,04,17,13.30
2015,08,17,04,18,13.40
2015,08,17,04,19,13.40
2015,08,17,04,20,13.40
2015,08,17,04,21,13.40
2015,08,17,04,22,13.40
2015,08,17,04,23,13.40
2015,08,17,04,24,13.40
2015,08,17,04,25,13.40
2015,08,17,04,26,13.40
2015,08,17,04,27,13.30
2015,08,17,04,28,13.30
2015,08,17,04,29,13.30
2015,08,17,04,30,13.30
2015,08,17,04,31,13.30
2015,08,17,04,32,13.30
2015,08,17,04,33,13.30
2015,08,17,04,34,13.30
2015,08,17,04,35,13.30
2015,08,17,04,36,13.30
2015,08,17,04,37,13.40
2015,08,17,04,38,13.40
2015,08,17,04,39,13.50
2015,08,17,04,40,13.60
2015,08,17,04,41,13.60
2015,08,17,04,42,13.70
2015,08,17,04,43,13.70
2015,08,17,04,44,13.70
2015,08,17,04,45,13.80
2015,08,17,04,46,13.80
2015,08,17,04,47,13.80
2015,08,17,04,48,13.90
2015,08,17,04,49,13.90
2015,08,17,04,50,13.90
2015,08,17,04,51,13.90
2015,08,17,04,52,13.90
2015,08,17,04,53,13.90
2015,08,17,04,54,13.80
2015,08,17,04,55,13.80
2015,08,17,04,56,13.70
2015,08,17,04,57,13.70
2015,08,17,04,58,13.60
2015,08,17,04,59,13.50
2015,08,17,05,00,13.40
2015,08,17,05,01,13.40
2015,08,17,05,02,13.30
2015,08,17,05,03,13.30
2015,08,17,05,04,13.20
2015,08,17,05,05,13.20
2015,08,17,05,06,13.10
2015,08,17,05,07,13.10
2015,08,17,05,08,13.10
2015,08,17,05,09,13.00
2015,08,17,05,10,13.00
2015,08,17,05,11,12.90
2015,08,17,05,12,12.90
2015,08,17,05,13,12.80
2015,08,17,05,14,12.80
2015,08,17,05,15,12.80
2015,08,17,05,16,12.70
2015,08,17,05,17,12.70
2015,08,17,05,18,12.60
2015,08,17,05,19,12.60
2015,08,17,05,20,12.60
2015,08,17,05,21,12.50
2015,08,17,05,22,12.50
2015,08,17,05,23,12.50
2015,08,17,05,24,12.40
2015,08,17,05,25,12.40
2015,08,17,05,26,12.40
2015,08,17,05,27,12.40
2015,08,17,05,28,12.40
2015,08,17,05,29,12.30
2015,08,17,05,30,12.30
2015,08,17,05,31,12.30
2015,08,17,05,32,12.30
2015,08,17,05,33,12.30
2015,08,17,05,34,12.30
2015,08,17,05,35,12.30
2015,08,17,05,36,12.30
2015,08,17,05,37,12.30
2015,08,17,05,38,12.20
2015,08,17,05,39,12.20
2015,08,17,05,40,12.20
2015,08,17,05,41,12.20
2015,08,17,05,42,12.20
2015,08,17,05,43,12.20
2015,08,17,05,44,12.20
2015,08,17,05,45,12.20
2015,08,17,05,46,12.20
2015,08,17,05,47,12.20
2015,08,17,05,48,12.10
2015,08,17,05,49,12.10
2015,08,17,05,50,12.10
2015,08,17,05,51,12.10
2015,08,17,05,52,12.00
2015,08,17,05,53,12.00
2015,08,17,05,54,12.00
2015,08,17,05,55,11.90
2015,08,17,05,56,11.90
2015,08,17,05,57,11.90
2015,08,17,05,58,11.90
2015,08,17,05,59,11.90
2015,08,17,06,00,11.90
2015,08,17,06,01,11.80
2015,08,17,06,02,11.90
2015,08,17,06,03,11.90
2015,08,17,06,04,11.90
2015,08,17,06,05,11.90
2015,08,17,06,06,11.90
2015,08,17,06,07,11.90
2015,08,17,06,08,11.90
2015,08,17,06,09,11.90
2015,08,17,06,10,11.90
2015,08,17,06,11,11.90
2015,08,17,06,12,11.90
2015,08,17,06,13,11.90
2015,08,17,06,14,11.90
2015,08,17,06,15,11.90
2015,08,17,06,16,11.90
2015,08,17,06,17,11.90
2015,08,17,06,18,11.90
2015,08,17,06,19,11.80
2015,08,17,06,20,11.90
2015,08,17,06,21,11.90
2015,08,17,06,22,11.90
2015,08,17,06,23,11.90
2015,08,17,06,24,11.90
2015,08,17,06,25,11.90
2015,08,17,06,26,11.80
2015,08,17,06,27,11.80
2015,08,17,06,28,11.80
2015,08,17,06,29,11.80
2015,08,17,06,30,11.80
2015,08,17,06,31,11.80
2015,08,17,06,32,11.80
2015,08,17,06,33,11.80
2015,08,17,06,34,11.80
2015,08,17,06,35,11.80
2015,08,17,06,36,11.80
2015,08,17,06,37,11.80
2015,08,17,06,38,11.80
2015,08,17,06,39,11.80
2015,08,17,06,40,11.80
2015,08,17,06,41,11.90
2015,08,17,06,42,11.90
2015,08,17,06,43,11.90
2015,08,17,06,44,11.90
2015,08,17,06,45,11.90
2015,08,17,06,46,12.00
2015,08,17,06,47,12.00
2015,08,17,06,48,12.00
2015,08,17,06,49,12.10
2015,08,17,06,50,12.10
2015,08,17,06,51,12.10
2015,08,17,06,52,12.10
2015,08,17,06,53,12.20
2015,08,17,06,54,12.20
2015,08,17,06,55,12.20
2015,08,17,06,56,12.20
2015,08,17,06,57,12.20
2015,08,17,06,58,12.30
2015,08,17,06,59,12.30
2015,08,17,07,00,12.30
2015,08,17,07,01,12.30
2015,08,17,07,02,12.30
2015,08,17,07,03,12.30
2015,08,17,07,04,12.30
2015,08,17,07,05,12.40
2015,08,17,07,06,12.40
2015,08,17,07,07,12.50
2015,08,17,07,08,12.50
2015,08,17,07,09,12.60
2015,08,17,07,10,12.60
2015,08,17,07,11,12.70
2015,08,17,07,12,12.70
2015,08,17,07,13,12.80
2015,08,17,07,14,12.80
2015,08,17,07,15,12.80
2015,08,17,07,16,13.00
2015,08,17,07,17,13.10
2015,08,17,07,18,13.20
2015,08,17,07,19,13.20
2015,08,17,07,20,13.20
2015,08,17,07,21,13.30
2015,08,17,07,22,13.30
2015,08,17,07,23,13.40
2015,08,17,07,24,13.40
2015,08,17,07,25,13.50
2015,08,17,07,26,13.50
2015,08,17,07,27,13.60
2015,08,17,07,28,13.60
2015,08,17,07,29,13.70
2015,08,17,07,30,13.70
2015,08,17,07,31,13.70
2015,08,17,07,32,13.80
2015,08,17,07,33,13.80
2015,08,17,07,34,13.80
2015,08,17,07,35,13.80
2015,08,17,07,36,13.90
2015,08,17,07,37,13.90
2015,08,17,07,38,13.90
2015,08,17,07,39,14.00
2015,08,17,07,40,14.00
2015,08,17,07,41,14.10
2015,08,17,07,42,14.10
2015,08,17,07,43,14.10
2015,08,17,07,44,14.20
2015,08,17,07,45,14.20
2015,08,17,07,46,14.30
2015,08,17,07,47,14.30
2015,08,17,07,48,14.40
2015,08,17,07,49,14.50
2015,08,17,07,50,14.60
2015,08,17,07,51,14.70
2015,08,17,07,52,14.80
2015,08,17,07,53,14.90
2015,08,17,07,54,15.00
2015,08,17,07,55,15.20
2015,08,17,07,56,15.30
2015,08,17,07,57,15.40
2015,08,17,07,58,15.60
2015,08,17,07,59,15.60
2015,08,17,08,00,15.70
2015,08,17,08,01,15.70
2015,08,17,08,02,15.70
2015,08,17,08,03,15.80
2015,08,17,08,04,15.80
2015,08,17,08,05,15.80
2015,08,17,08,06,15.80
2015,08,17,08,07,15.90
2015,08,17,08,08,15.90
2015,08,17,08,09,15.90
2015,08,17,08,10,16.00
2015,08,17,08,11,16.00
2015,08,17,08,12,16.00
2015,08,17,08,13,16.10
2015,08,17,08,14,16.10
2015,08,17,08,15,16.10
2015,08,17,08,16,16.10
2015,08,17,08,17,16.10
2015,08,17,08,18,16.10
2015,08,17,08,19,16.10
2015,08,17,08,20,16.10
2015,08,17,08,21,16.10
2015,08,17,08,22,16.20
2015,08,17,08,23,16.20
2015,08,17,08,24,16.20
2015,08,17,08,25,16.30
2015,08,17,08,26,16.30
2015,08,17,08,27,16.30
2015,08,17,08,28,16.30
2015,08,17,08,29,16.30
2015,08,17,08,30,16.30
2015,08,17,08,31,16.20
2015,08,17,08,32,16.20
2015,08,17,08,33,16.20
2015,08,17,08,34,16.20
2015,08,17,08,35,16.20
2015,08,17,08,36,16.20
2015,08,17,08,37,16.20
2015,08,17,08,38,16.20
2015,08,17,08,39,16.20
2015,08,17,08,40,16.20
2015,08,17,08,41,16.20
2015,08,17,08,42,16.30
2015,08,17,08,43,16.30
2015,08,17,08,44,16.30
2015,08,17,08,45,16.40
2015,08,17,08,46,16.40
2015,08,17,08,47,16.40
2015,08,17,08,48,16.50
2015,08,17,08,49,16.50
2015,08,17,08,50,16.50
2015,08,17,08,51,16.50
2015,08,17,08,52,16.60
2015,08,17,08,53,16.70
2015,08,17,08,54,16.70
2015,08,17,08,55,16.70
2015,08,17,08,56,16.70
2015,08,17,08,57,16.80
2015,08,17,08,58,16.80
2015,08,17,08,59,16.80
2015,08,17,09,00,16.80
2015,08,17,09,01,16.80
2015,08,17,09,02,16.80
2015,08,17,09,03,16.80
2015,08,17,09,04,16.90
2015,08,17,09,05,16.90
2015,08,17,09,06,16.90
2015,08,17,09,07,17.00
2015,08,17,09,08,17.00
2015,08,17,09,09,17.00
2015,08,17,09,10,17.00
2015,08,17,09,11,17.10
2015,08,17,09,12,17.10
2015,08,17,09,13,17.10
2015,08,17,09,14,17.10
2015,08,17,09,15,17.10
2015,08,17,09,16,17.20
2015,08,17,09,17,17.20
2015,08,17,09,18,17.20
2015,08,17,09,19,17.20
2015,08,17,09,20,17.30
2015,08,17,09,21,17.30
2015,08,17,09,22,17.30
2015,08,17,09,23,17.40
2015,08,17,09,24,17.40
2015,08,17,09,25,17.40
2015,08,17,09,26,17.50
2015,08,17,09,27,17.50
2015,08,17,09,28,17.60
2015,08,17,09,29,17.60
2015,08,17,09,30,17.60
2015,08,17,09,31,17.50
2015,08,17,09,32,17.50
2015,08,17,09,33,17.50
2015,08,17,09,34,17.50
2015,08,17,09,35,17.50
2015,08,17,09,36,17.50
2015,08,17,09,37,17.50
2015,08,17,09,38,17.60
2015,08,17,09,39,17.60
2015,08,17,09,40,17.70
2015,08,17,09,41,17.70
2015,08,17,09,42,17.80
2015,08,17,09,43,17.90
2015,08,17,09,44,18.00
2015,08,17,09,45,18.10
2015,08,17,09,46,18.10
2015,08,17,09,47,18.10
2015,08,17,09,48,18.10
2015,08,17,09,49,18.20
2015,08,17,09,50,18.20
2015,08,17,09,51,18.20
2015,08,17,09,52,18.20
2015,08,17,09,53,18.30
2015,08,17,09,54,18.30
2015,08,17,09,55,18.30
2015,08,17,09,56,18.40
2015,08,17,09,57,18.40
2015,08,17,09,58,18.40
2015,08,17,09,59,18.40
2015,08,17,10,00,18.40
2015,08,17,10,01,18.40
2015,08,17,10,02,18.50
2015,08,17,10,03,18.50
2015,08,17,10,04,18.60
2015,08,17,10,05,18.60
2015,08,17,10,06,18.60
2015,08,17,10,07,18.60
2015,08,17,10,08,18.70
2015,08,17,10,09,18.60
2015,08,17,10,10,18.70
2015,08,17,10,11,18.70
2015,08,17,10,12,18.70
2015,08,17,10,13,18.70
2015,08,17,10,14,18.70
2015,08,17,10,15,18.80
2015,08,17,10,16,18.80
2015,08,17,10,17,18.80
2015,08,17,10,18,18.90
2015,08,17,10,19,18.90
2015,08,17,10,20,18.90
2015,08,17,10,21,18.90
2015,08,17,10,22,19.00
2015,08,17,10,23,19.10
2015,08,17,10,24,19.20
2015,08,17,10,25,19.20
2015,08,17,10,26,19.20
2015,08,17,10,27,19.20
2015,08,17,10,28,19.20
2015,08,17,10,29,19.20
2015,08,17,10,30,19.20
2015,08,17,10,31,19.20
2015,08,17,10,32,19.30
2015,08,17,10,33,19.30
2015,08,17,10,34,19.40
2015,08,17,10,35,19.40
2015,08,17,10,36,19.50
2015,08,17,10,37,19.50
2015,08,17,10,38,19.60
2015,08,17,10,39,19.60
2015,08,17,10,40,19.60
2015,08,17,10,41,19.60
2015,08,17,10,42,19.60
2015,08,17,10,43,19.60
2015,08,17,10,44,19.70
2015,08,17,10,45,19.70
2015,08,17,10,46,19.70
2015,08,17,10,47,19.80
2015,08,17,10,48,19.80
2015,08,17,10,49,19.80
2015,08,17,10,50,19.90
2015,08,17,10,51,19.90
2015,08,17,10,52,20.00
2015,08,17,10,53,20.00
2015,08,17,10,54,20.10
2015,08,17,10,55,20.10
2015,08,17,10,56,20.10
2015,08,17,10,57,20.20
2015,08,17,10,58,20.20
2015,08,17,10,59,20.20
2015,08,17,11,00,20.20
2015,08,17,11,01,20.30
2015,08,17,11,02,20.30
2015,08,17,11,03,20.40
2015,08,17,11,04,20.40
2015,08,17,11,05,20.50
2015,08,17,11,06,20.60
2015,08,17,11,07,20.70
2015,08,17,11,08,20.70
2015,08,17,11,09,20.80
2015,08,17,11,10,20.80
2015,08,17,11,11,20.80
2015,08,17,11,12,20.80
2015,08,17,11,13,20.80
2015,08,17,11,14,20.70
2015,08,17,11,15,20.70
2015,08,17,11,16,20.60
2015,08,17,11,17,20.60
2015,08,17,11,18,20.60
2015,08,17,11,19,20.70
2015,08,17,11,20,20.70
2015,08,17,11,21,20.70
2015,08,17,11,22,20.80
2015,08,17,11,23,20.80
2015,08,17,11,24,20.80
2015,08,17,11,25,20.80
2015,08,17,11,26,20.80
2015,08,17,11,27,20.80
2015,08,17,11,28,20.80
2015,08,17,11,29,20.80
2015,08,17,11,30,20.80
2015,08,17,11,31,20.80
2015,08,17,11,32,20.80
2015,08,17,11,33,20.80
2015,08,17,11,34,20.80
2015,08,17,11,35,20.80
2015,08,17,11,36,20.80
2015,08,17,11,37,20.80
2015,08,17,11,38,20.80
2015,08,17,11,39,20.90
2015,08,17,11,40,20.90
2015,08,17,11,41,21.00
2015,08,17,11,42,21.00
2015,08,17,11,43,21.00
2015,08,17,11,44,21.00
2015,08,17,11,45,21.00
2015,08,17,11,46,21.10
2015,08,17,11,47,21.10
2015,08,17,11,48,21.10
2015,08,17,11,49,21.20
2015,08,17,11,50,21.20
2015,08,17,11,51,21.20
2015,08,17,11,52,21.30
2015,08,17,11,53,21.30
2015,08,17,11,54,21.30
2015,08,17,11,55,21.30
2015,08,17,11,56,21.30
2015,08,17,11,57,21.30
2015,08,17,11,58,21.40
2015,08,17,11,59,21.40
2015,08,17,12,00,21.40
2015,08,17,12,01,21.40
2015,08,17,12,02,21.50
2015,08,17,12,03,21.60
2015,08,17,12,04,21.60
2015,08,17,12,05,21.70
2015,08,17,12,06,21.70
2015,08,17,12,07,21.70
2015,08,17,12,08,21.80
2015,08,17,12,09,21.80
2015,08,17,12,10,21.90
2015,08,17,12,11,22.00
2015,08,17,12,12,22.00
2015,08,17,12,13,21.90
2015,08,17,12,14,21.80
2015,08,17,12,15,21.80
2015,08,17,12,16,21.90
2015,08,17,12,17,21.90
2015,08,17,12,18,22.00
2015,08,17,12,19,22.10
2015,08,17,12,20,22.20
2015,08,17,12,21,22.10
2015,08,17,12,22,22.10
2015,08,17,12,23,22.00
2015,08,17,12,24,22.00
2015,08,17,12,25,22.00
2015,08,17,12,26,22.00
2015,08,17,12,27,22.00
2015,08,17,12,28,22.10
2015,08,17,12,29,22.10
2015,08,17,12,30,22.10
2015,08,17,12,31,22.10
2015,08,17,12,32,22.00
2015,08,17,12,33,22.00
2015,08,17,12,34,22.00
2015,08,17,12,35,22.00
2015,08,17,12,36,22.00
2015,08,17,12,37,22.10
2015,08,17,12,38,22.20
2015,08,17,12,39,22.20
2015,08,17,12,40,22.30
2015,08,17,12,41,22.30
2015,08,17,12,42,22.30
2015,08,17,12,43,22.30
2015,08,17,12,44,22.30
2015,08,17,12,45,22.30
2015,08,17,12,46,22.30
2015,08,17,12,47,22.30
2015,08,17,12,48,22.30
2015,08,17,12,49,22.40
2015,08,17,12,50,22.40
2015,08,17,12,51,22.40
2015,08,17,12,52,22.40
2015,08,17,12,53,22.40
2015,08,17,12,54,22.40
2015,08,17,12,55,22.40
2015,08,17,12,56,22.40
2015,08,17,12,57,22.30
2015,08,17,12,58,22.30
2015,08,17,12,59,22.30
2015,08,17,13,00,22.30
2015,08,17,13,01,22.40
2015,08,17,13,02,22.40
2015,08,17,13,03,22.40
2015,08,17,13,04,22.40
2015,08,17,13,05,22.40
2015,08,17,13,06,22.40
2015,08,17,13,07,22.40
2015,08,17,13,08,22.40
2015,08,17,13,09,22.50
2015,08,17,13,10,22.60
2015,08,17,13,11,22.60
2015,08,17,13,12,22.70
2015,08,17,13,13,22.70
2015,08,17,13,14,22.70
2015,08,17,13,15,22.60
2015,08,17,13,16,22.60
2015,08,17,13,17,22.60
2015,08,17,13,18,22.50
2015,08,17,13,19,22.50
2015,08,17,13,20,22.50
2015,08,17,13,21,22.60
2015,08,17,13,22,22.70
2015,08,17,13,23,22.80
2015,08,17,13,24,22.80
2015,08,17,13,25,22.80
2015,08,17,13,26,22.90
2015,08,17,13,27,22.90
2015,08,17,13,28,23.00
2015,08,17,13,29,23.00
2015,08,17,13,30,23.10
2015,08,17,13,31,23.20
2015,08,17,13,32,23.30
2015,08,17,13,33,23.30
2015,08,17,13,34,23.40
2015,08,17,13,35,23.40
2015,08,17,13,36,23.50
2015,08,17,13,37,23.50
2015,08,17,13,38,23.50
2015,08,17,13,39,23.60
2015,08,17,13,40,23.60
2015,08,17,13,41,23.60
2015,08,17,13,42,23.60
2015,08,17,13,43,23.70
2015,08,17,13,44,23.70
2015,08,17,13,45,23.70
2015,08,17,13,46,23.70
2015,08,17,13,47,23.80
2015,08,17,13,48,23.80
2015,08,17,13,49,23.90
2015,08,17,13,50,24.00
2015,08,17,13,51,24.00
2015,08,17,13,52,24.00
2015,08,17,13,53,24.00
2015,08,17,13,54,23.90
2015,08,17,13,55,23.90
2015,08,17,13,56,23.90
2015,08,17,13,57,23.80
2015,08,17,13,58,23.80
2015,08,17,13,59,23.80
2015,08,17,14,00,23.80
2015,08,17,14,01,23.80
2015,08,17,14,02,23.90
2015,08,17,14,03,23.90
2015,08,17,14,04,24.00
2015,08,17,14,05,24.10
2015,08,17,14,06,24.20
2015,08,17,14,07,24.40
2015,08,17,14,08,24.50
2015,08,17,14,09,24.60
2015,08,17,14,10,24.70
2015,08,17,14,11,24.70
2015,08,17,14,12,24.70
2015,08,17,14,13,24.80
2015,08,17,14,14,24.80
2015,08,17,14,15,24.90
2015,08,17,14,16,25.00
2015,08,17,14,17,25.00
2015,08,17,14,18,25.10
2015,08,17,14,19,25.20
2015,08,17,14,20,25.20
2015,08,17,14,21,25.20
2015,08,17,14,22,25.30
2015,08,17,14,23,25.30
2015,08,17,14,24,25.40
2015,08,17,14,25,25.40
2015,08,17,14,26,25.40
2015,08,17,14,27,25.40
2015,08,17,14,28,25.40
2015,08,17,14,29,25.30
2015,08,17,14,30,25.30
2015,08,17,14,31,25.20
2015,08,17,14,32,25.20
2015,08,17,14,33,25.20
2015,08,17,14,34,25.10
2015,08,17,14,35,25.10
2015,08,17,14,36,25.00
2015,08,17,14,37,25.00
2015,08,17,14,38,24.90
2015,08,17,14,39,24.80
2015,08,17,14,40,24.80
2015,08,17,14,41,24.80
2015,08,17,14,42,24.70
2015,08,17,14,43,24.80
2015,08,17,14,44,24.80
2015,08,17,14,45,24.80
2015,08,17,14,46,24.90
2015,08,17,14,47,24.90
2015,08,17,14,48,25.00
2015,08,17,14,49,25.00
2015,08,17,14,50,25.10
2015,08,17,14,51,25.10
2015,08,17,14,52,25.00
2015,08,17,14,53,25.00
2015,08,17,14,54,25.00
2015,08,17,14,55,25.00
2015,08,17,14,56,25.00
2015,08,17,14,57,25.00
2015,08,17,14,58,25.00
2015,08,17,14,59,25.10
2015,08,17,15,00,25.10
2015,08,17,15,01,25.10
2015,08,17,15,02,25.20
2015,08,17,15,03,25.20
2015,08,17,15,04,25.20
2015,08,17,15,05,25.20
2015,08,17,15,06,25.20
2015,08,17,15,07,25.10
2015,08,17,15,08,25.10
2015,08,17,15,09,25.10
2015,08,17,15,10,25.10
2015,08,17,15,11,25.10
2015,08,17,15,12,25.10
2015,08,17,15,13,25.00
2015,08,17,15,14,24.90
2015,08,17,15,15,24.90
2015,08,17,15,16,24.90
2015,08,17,15,17,24.90
2015,08,17,15,18,24.80
2015,08,17,15,19,24.80
2015,08,17,15,20,24.80
2015,08,17,15,21,24.80
2015,08,17,15,22,24.90
2015,08,17,15,23,24.90
2015,08,17,15,24,24.90
2015,08,17,15,25,25.00
2015,08,17,15,26,25.00
2015,08,17,15,27,25.00
2015,08,17,15,28,25.10
2015,08,17,15,29,25.10
2015,08,17,15,30,25.20
2015,08,17,15,31,25.20
2015,08,17,15,32,25.20
2015,08,17,15,33,25.20
2015,08,17,15,34,25.20
2015,08,17,15,35,25.20
2015,08,17,15,36,25.30
2015,08,17,15,37,25.40
2015,08,17,15,38,25.40
2015,08,17,15,39,25.40
2015,08,17,15,40,25.40
2015,08,17,15,41,25.30
2015,08,17,15,42,25.30
2015,08,17,15,43,25.30
2015,08,17,15,44,25.30
2015,08,17,15,45,25.30
2015,08,17,15,46,25.30
2015,08,17,15,47,25.30
2015,08,17,15,48,25.30
2015,08,17,15,49,25.20
2015,08,17,15,50,25.20
2015,08,17,15,51,25.10
2015,08,17,15,52,25.10
2015,08,17,15,53,25.10
2015,08,17,15,54,25.20
2015,08,17,15,55,25.20
2015,08,17,15,56,25.20
2015,08,17,15,57,25.20
2015,08,17,15,58,25.20
2015,08,17,15,59,25.20
2015,08,17,16,00,25.10
2015,08,17,16,01,25.10
2015,08,17,16,02,25.10
2015,08,17,16,03,25.00
2015,08,17,16,04,25.00
2015,08,17,16,05,25.00
2015,08,17,16,06,25.00
2015,08,17,16,07,25.00
2015,08,17,16,08,25.10
2015,08,17,16,09,25.10
2015,08,17,16,10,25.10
2015,08,17,16,11,25.20
2015,08,17,16,12,25.20
2015,08,17,16,13,25.20
2015,08,17,16,14,25.30
2015,08,17,16,15,25.40
2015,08,17,16,16,25.50
2015,08,17,16,17,25.50
2015,08,17,16,18,25.60
2015,08,17,16,19,25.60
2015,08,17,16,20,25.60
2015,08,17,16,21,25.60
2015,08,17,16,22,25.70
2015,08,17,16,23,25.70
2015,08,17,16,24,25.70
2015,08,17,16,25,25.80
2015,08,17,16,26,25.80
2015,08,17,16,27,25.70
2015,08,17,16,28,25.70
2015,08,17,16,29,25.70
2015,08,17,16,30,25.70
2015,08,17,16,31,25.70
2015,08,17,16,32,25.70
2015,08,17,16,33,25.70
2015,08,17,16,34,25.70
2015,08,17,16,35,25.70
2015,08,17,16,36,25.80
2015,08,17,16,37,25.80
2015,08,17,16,38,25.70
2015,08,17,16,39,25.70
2015,08,17,16,40,25.70
2015,08,17,16,41,25.70
2015,08,17,16,42,25.70
2015,08,17,16,43,25.70
2015,08,17,16,44,25.70
2015,08,17,16,45,25.80
2015,08,17,16,46,25.80
2015,08,17,16,47,25.80
2015,08,17,16,48,25.90
2015,08,17,16,49,26.00
2015,08,17,16,50,26.00
2015,08,17,16,51,26.00
2015,08,17,16,52,26.00
2015,08,17,16,53,26.00
2015,08,17,16,54,26.00
2015,08,17,16,55,26.00
2015,08,17,16,56,25.90
2015,08,17,16,57,25.90
2015,08,17,16,58,25.90
2015,08,17,16,59,26.00
2015,08,17,17,00,26.00
2015,08,17,17,01,26.10
2015,08,17,17,02,26.20
2015,08,17,17,03,26.20
2015,08,17,17,04,26.20
2015,08,17,17,05,26.20
2015,08,17,17,06,26.30
2015,08,17,17,07,26.30
2015,08,17,17,08,26.40
2015,08,17,17,09,26.40
2015,08,17,17,10,26.40
2015,08,17,17,11,26.40
2015,08,17,17,12,26.40
2015,08,17,17,13,26.30
2015,08,17,17,14,26.30
2015,08,17,17,15,26.30
2015,08,17,17,16,26.30
2015,08,17,17,17,26.50
2015,08,17,17,18,26.50
2015,08,17,17,19,26.60